Voltar ao catálogo

COSMOS 2251 DEB

AtivoLEO
NORAD 33791·DEBRIS·🇷🇺 Russia

Lançado Jun 16, 1993 de Plesetsk Cosmodrome

Loading…

Próximas Passagens (próximas 24 horas)

TLE

AtualizadoSource: Space-Track

Época: Sep 13, 2026, 23:00 UTC

1 33791U 93036AG  26256.95863350  .00001703  00000-0  50063-3 0  9992
2 33791  74.1709 250.2029 0028569 357.4117  24.3944 14.44250039920246

Acompanhe COSMOS 2251 DEB em tempo real com AllMySat

Download on the App Store